Location: Newark
(14.6100°N, 11.8447°W)
Time: 00:25:33
(UTC+00:00)

N. Korean satellite - Visible Passes

Search period start: 15 November 2019 00:00
Search period end: 25 November 2019 00:00
Orbit: 456 x 506 km, 97.2° (Epoch: 14 November)

Date Brightness Start Highest point End Pass type
(mag) Time Alt. Az. Time Alt. Az. Time Alt. Az.
15 Nov 6.6 06:25:43 10° N 06:29:23 89° W 06:33:00 10° SSW visible
16 Nov 8.6 06:00:44 10° NE 06:04:02 32° E 06:07:18 10° SSE visible
17 Nov 10.1 05:36:51 10° ENE 05:38:39 13° E 05:40:26 10° SE visible
17 Nov 10.2 19:05:14 10° WSW 19:06:37 12° W 19:08:00 10° WNW visible
18 Nov 8.9 18:38:04 10° SSW 18:41:12 29° W 18:44:23 10° NW visible
19 Nov 7.1 06:17:37 10° NNE 06:21:15 66° E 06:24:48 10° S visible
20 Nov 9.2 05:52:53 10° NE 05:55:52 24° E 05:58:48 10° SSE visible
21 Nov 9.9 18:56:08 10° SW 18:58:24 16° W 19:00:41 10° WNW visible
23 Nov 7.8 06:09:33 10° NNE 06:13:03 46° E 06:16:27 10° S visible
24 Nov 9.7 05:45:07 10° NE 05:47:37 18° E 05:50:07 10° SE visible
